This demonstration page uses our WeatherBlox Daily Observations layout. Learn more.

Hourly Observations for December 24, 2015

Temp ( °F °C ) Dew Point ( °F °C ) Humidity (%) Winds ( mph kmh ) Pressure ( in mb ) Visibility ( mi km ) Precip ( " mm )
12:15 am 00:15 Partly Cloudy 26 -3.1 23 -5.1 86 86 Calm 29.71 1006 10 16.0934 0 0
12:35 am 00:35 Mostly Cloudy 27 -2.6 24 -4.6 86 86 NW 5 7 29.74 1007 10 16.0934 0 0
12:55 am 00:55 Cloudy 28 -2 25 -4 86 86 NW 6 9 29.74 1007 10 16.0934 0 0
1:15 am 01:15 Cloudy 30 -0.9 25 -3.9 80 80 N 8 13 29.71 1006 10 16.0934 0 0
1:35 am 01:35 Cloudy 29 -1.4 25 -3.9 83 83 N 12 19 29.74 1007 10 16.0934 0 0
1:55 am 01:55 Cloudy 29 -1.7 24 -4.2 83 83 N 7 11 29.77 1008 10 16.0934 0 0
2:15 am 02:15 Cloudy 29 -1.5 25 -4 83 83 NNW 7 11 29.8 1009 10 16.0934 0 0
2:35 am 02:35 Cloudy with Snow 28 -2 26 -3.6 89 89 WNW 3 6 29.83 1010 0.75 1.207005 0 0
2:55 am 02:55 Cloudy with Light Snow 28 -2.2 26 -3.2 93 93 Calm 29.83 1010 1.25 2.011675 0 0
3:15 am 03:15 Cloudy with Snow 28 -2.3 26 -3.2 94 94 Calm 29.83 1010 0.75 1.207005 0.01 0.254
3:35 am 03:35 Cloudy with Snow 28 -2.5 26 -3.2 95 95 Calm 29.83 1010 1 1.60934 0.03 0.762
3:55 am 03:55 Cloudy with Light Snow 28 -2.5 26 -3.2 95 95 Calm 29.83 1010 1.5 2.41401 0.05 1.27
4:15 am 04:15 Cloudy with Light Snow 28 -2.5 26 -3.3 94 94 Calm 29.83 1010 1.75 2.816345 0.01 0.254
4:35 am 04:35 Cloudy with Light Snow 28 -2.5 26 -3.2 95 95 Calm 29.83 1010 1.75 2.816345 0.02 0.508
4:55 am 04:55 Cloudy with Light Snow 28 -2.5 26 -3.3 94 94 ESE 3 6 29.83 1010 3 4.82802 0.03 0.762
5:15 am 05:15 Cloudy with Light Snow 27 -2.6 26 -3.3 95 95 SE 3 6 29.85 1011 5 8.0467 0 0
5:35 am 05:35 Cloudy 27 -2.7 26 -3.5 94 94 SE 6 9 29.8 1009 7 11.26538 0 0
5:55 am 05:55 Cloudy 27 -3 25 -3.7 95 95 SE 7 11 29.8 1009 10 16.0934 0 0
6:15 am 06:15 Cloudy 26 -3.3 25 -4 95 95 SE 6 9 29.8 1009 10 16.0934 0 0
6:35 am 06:35 Cloudy 26 -3.4 25 -4.1 95 95 SE 6 9 29.85 1011 10 16.0934 0 0
6:55 am 06:55 Cloudy 26 -3.5 24 -4.2 95 95 SSE 6 9 29.85 1011 10 16.0934 0 0
7:15 am 07:15 Partly Cloudy 25 -3.8 24 -4.6 94 94 S 5 7 29.88 1012 10 16.0934 0 0
7:35 am 07:35 Clear 23 -4.8 22 -5.6 94 94 Calm 29.88 1012 10 16.0934 0 0
7:55 am 07:55 Mostly Cloudy with Mist and Fog 21 -5.9 20 -6.6 95 95 Calm 29.91 1013 1 1.60934 0 0
8:15 am 08:15 Cloudy with Mist and Fog 22 -5.5 21 -6.2 95 95 Calm 29.91 1013 1.5 2.41401 0 0
8:35 am 08:35 Cloudy with Freezing Fog 24 -4.2 23 -5 94 94 SW 3 6 29.91 1013 5 8.0467 0 0
8:55 am 08:55 Cloudy with Freezing Fog 25 -3.8 24 -4.5 95 95 SSW 5 7 29.91 1013 5 8.0467 0 0
9:15 am 09:15 Cloudy with Freezing Fog 26 -3.6 24 -4.3 95 95 Calm 29.91 1013 5 8.0467 0 0
9:35 am 09:35 Cloudy with Freezing Fog 26 -3.1 25 -3.7 96 96 Calm 29.94 1014 5 8.0467 0 0
9:55 am 09:55 Cloudy 27 -2.7 26 -3.3 96 96 Calm 29.94 1014 7 11.26538 0 0
10:15 am 10:15 Cloudy 27 -2.7 26 -3.3 96 96 W 3 6 29.94 1014 7 11.26538 0 0
10:35 am 10:35 Cloudy 27 -2.9 26 -3.5 96 96 W 5 7 29.97 1015 10 16.0934 0 0
10:55 am 10:55 Cloudy 27 -2.8 26 -3.4 96 96 NW 3 6 29.97 1015 10 16.0934 0 0
11:15 am 11:15 Partly Cloudy 27 -2.6 26 -3.2 96 96 NW 3 6 29.97 1015 10 16.0934 0 0
11:35 am 11:35 Sunny 28 -2.5 26 -3.2 95 95 W 3 6 29.97 1015 10 16.0934 0 0
11:55 am 11:55 Mostly Cloudy 28 -2.3 26 -3.6 91 91 Calm 30 1016 10 16.0934 0 0
12:15 pm 12:15 Mostly Cloudy 29 -1.5 26 -3.3 88 88 W 6 9 29.97 1015 10 16.0934 0 0
12:35 pm 12:35 Partly Cloudy 30 -1.3 25 -3.8 83 83 Calm 29.97 1015 10 16.0934 0 0
12:55 pm 12:55 Sunny 31 -0.7 25 -3.7 80 80 WNW 3 6 29.97 1015 10 16.0934 0 0
1:15 pm 13:15 Sunny 32 -0.2 26 -3.5 79 79 WNW 6 9 29.97 1015 10 16.0934 0 0
1:35 pm 13:35 Sunny 32 0 26 -3.5 78 78 W 6 9 30 1016 10 16.0934 0 0
1:55 pm 13:55 Sunny 32 0 26 -3.5 78 78 W 7 11 29.97 1015 10 16.0934 0 0
2:15 pm 14:15 Sunny 32 0 26 -3.3 79 79 WNW 3 6 29.97 1015 10 16.0934 0 0
2:35 pm 14:35 Sunny 32 0.2 26 -3.3 78 78 Calm 29.97 1015 10 16.0934 0 0
2:55 pm 14:55 Sunny 33 0.7 27 -2.9 77 77 NW 3 6 29.97 1015 10 16.0934 0 0
3:15 pm 15:15 Sunny 33 0.8 27 -2.8 77 77 Calm 29.97 1015 10 16.0934 0 0
3:35 pm 15:35 Sunny 33 0.5 27 -3 78 78 Calm 30 1016 10 16.0934 0 0
3:55 pm 15:55 Sunny 33 0.7 27 -2.7 78 78 SW 3 6 30 1016 10 16.0934 0 0
4:15 pm 16:15 Sunny 33 0.7 28 -2.5 79 79 Calm 30 1016 10 16.0934 0 0
4:35 pm 16:35 Sunny 32 0.2 27 -2.6 82 82 S 3 6 30 1016 10 16.0934 0 0
4:55 pm 16:55 Sunny 32 0 27 -2.7 82 82 SW 5 7 30 1016 10 16.0934 0 0
5:15 pm 17:15 Sunny 31 -0.5 26 -3.3 82 82 S 5 7 30 1016 10 16.0934 0 0
5:35 pm 17:35 Clear 29 -1.7 25 -4.1 84 84 SW 3 6 30.03 1017 10 16.0934 0 0
5:55 pm 17:55 Clear 28 -2.3 24 -4.3 86 86 SSW 6 9 30.06 1018 10 16.0934 0 0
6:15 pm 18:15 Clear 28 -2.5 24 -4.4 87 87 SW 6 9 30.06 1018 10 16.0934 0 0
6:35 pm 18:35 Clear 27 -2.6 23 -5.1 83 83 WSW 5 7 30.06 1018 10 16.0934 0 0
6:55 pm 18:55 Clear 28 -2 23 -5.2 79 79 WSW 5 7 30.09 1019 10 16.0934 0 0
7:15 pm 19:15 Clear 29 -1.5 22 -5.4 75 75 WSW 8 13 30.09 1019 10 16.0934 0 0
7:35 pm 19:35 Clear 29 -1.5 21 -6.1 71 71 WSW 8 13 30.09 1019 10 16.0934 0 0
7:55 pm 19:55 Clear 30 -1 20 -6.4 67 67 W 13 20 30.09 1019 10 16.0934 0 0
8:15 pm 20:15 Clear 28 -2.1 20 -6.8 71 71 W 10 17 30.12 1020 10 16.0934 0 0
8:35 pm 20:35 Clear 24 -4.7 15 -9.2 71 71 SSE 5 7 30.15 1021 10 16.0934 0 0
8:55 pm 20:55 Clear 23 -5 18 -7.7 82 82 S 12 19 30.15 1021 10 16.0934 0 0
9:15 pm 21:15 Clear 23 -5.1 17 -8.1 80 80 S 7 11 30.15 1021 10 16.0934 0 0
9:35 pm 21:35 Clear 21 -6.1 18 -7.8 88 88 S 8 13 30.18 1022 10 16.0934 0 0
9:55 pm 21:55 Clear 22 -5.3 19 -7.3 86 86 S 7 11 30.18 1022 10 16.0934 0 0
10:15 pm 22:15 Clear 22 -5.6 18 -7.9 84 84 S 9 15 30.18 1022 10 16.0934 0 0
10:35 pm 22:35 Clear 22 -5.8 18 -8 85 85 SSW 10 17 30.18 1022 10 16.0934 0 0
10:55 pm 22:55 Clear 22 -5.4 18 -8 82 82 SSW 8 13 30.18 1022 10 16.0934 0 0
11:15 pm 23:15 Clear 22 -5.5 17 -8.2 82 82 SSW 7 11 30.18 1022 10 16.0934 0 0
11:35 pm 23:35 Clear 22 -5.5 17 -8.6 79 79 SW 7 11 30.21 1023 10 16.0934 0 0
11:55 pm 23:55 Clear 22 -5.5 16 -9 77 77 SSW 7 11 30.21 1023 10 16.0934 0 0

Powered by AerisWeather